Simultaneous Nadir Overpasses (SNOs) Predictions

Prediction of SNOs between GOES-16 and LANDSAT-8 Satellite Orbit:

Table of predicted SNOs for the next 14.0 days since TLE Epoch: 1/21/2023
Index Date Time (GOES-16) GOES-16 Lat,Lon LANDSAT-8 Lat,Lon Distance(km) Time Diff (sec)
1 01/21/2023 14:54:38 -0.00, -75.20 -0.91, -70.96 481.74 80
2 01/22/2023 03:18:42 -0.00, -75.19 -0.23, -76.15 110.11 80
3 01/24/2023 03:03:52 -0.01, -75.20 0.40, -73.20 226.82 80
4 01/24/2023 15:27:48 0.02, -75.22 0.68, -78.36 357.51 80
5 01/26/2023 15:15:37 0.02, -75.24 0.08, -75.41 19.44 80
6 01/28/2023 15:00:46 0.02, -75.27 -0.55, -72.45 319.56 80
7 01/29/2023 03:24:51 -0.02, -75.26 -0.50, -77.66 271.46 80
8 01/31/2023 03:09:59 -0.01, -75.30 0.10, -74.70 68.06 80
9 02/02/2023 02:57:48 0.01, -75.33 0.79, -71.75 407.80 80
10 02/02/2023 15:19:03 -0.02, -75.36 0.33, -76.90 176.09 80
